Weather History for LEPA - February, 2014

Change the Weather History Date:

Monday, February 24, 2014

  Actual Average Record
Temperature  
Mean Temperature 52 °F -  
Max Temperature 65 °F 61 °F - ()
Min Temperature 39 °F 41 °F - ()
Degree Days  
Heating Degree Days 13    
Growing Degree Days 2 (Base 50)    
Moisture  
Dew Point 46 °F    
Average Humidity 80    
Maximum Humidity 100    
Minimum Humidity 44    
Precipitation  
Precipitation 0.00 in 0.05 in - ()
Sea Level Pressure  
Sea Level Pressure 30.05 in    
Wind  
Wind Speed 4 mph ()    
Max Wind Speed 15 mph    
Max Gust Speed -    
Visibility 7.3 miles    
Events      
T = Trace of Precipitation, MM = Missing Value Source: Averaged Metar Reports

Daily Weather History Graph

Daily Weather History Graph

Search for Another Location

Airport or City:

Trip Planner

Search our weather history database for the weather conditions in past years. The results will help you decide how hot, cold, wet, or windy it might be!

Date:

Astronomy

Feb. 24, 2014 Rise Set
Actual Time 7:29 AM CET 6:35 PM CET
Civil Twilight 7:02 AM CET 7:02 PM CET
Nautical Twilight 6:31 AM CET 7:34 PM CET
Astronomical Twilight 6:00 AM CET 8:05 PM CET
Moon 3:12 AM CET (2/24) 1:21 PM CET (2/24)
Length of Visible Light 12h 00m
Length of Day
11h 06m
Waning Crescent, 31% of the Moon is Illuminated
Feb 24
Waning Crescent
Mar 1
New
Mar 8
First Quarter
Mar 16
Full
Mar 24
Last Quarter

Hourly Weather History & Observations

Time (CET) Temp. Windchill Dew Point Humidity Pressure Visibility Wind Dir Wind Speed Gust Speed Precip Events Conditions
12:00 AM 43 °F - 41 °F 89% 30.12 in - NE 2.3 mph - -  
12:00 AM 42.8 °F 41.1 °F 41.0 °F 93% 30.09 in 6.2 mi NE 3.5 mph - N/A   Partly Cloudy
12:30 AM 42.8 °F 40.1 °F 41.0 °F 93% 30.09 in 6.2 mi ENE 4.6 mph - N/A   Partly Cloudy
1:00 AM 42 °F - 40 °F 88% 30.10 in 12 mi East 2.3 mph - -   Scattered Clouds
1:00 AM 42.8 °F 39.3 °F 39.2 °F 87% 30.09 in 6.2 mi ENE 5.8 mph - N/A   Partly Cloudy
1:30 AM 42.8 °F 39.3 °F 39.2 °F 87% 30.09 in 6.2 mi ENE 5.8 mph - N/A   Partly Cloudy
2:00 AM 42 °F - 40 °F 89% 30.10 in - East 2.3 mph - -  
2:00 AM 41.0 °F 37.1 °F 39.2 °F 93% 30.09 in 6.2 mi ENE 5.8 mph - N/A   Partly Cloudy
2:30 AM 42.8 °F - 39.2 °F 87% 30.09 in 6.2 mi East 2.3 mph - N/A   Partly Cloudy
3:00 AM 42 °F - 40 °F 88% 30.09 in - East 2.3 mph - -  
3:00 AM 41.0 °F - 39.2 °F 93% 30.06 in 6.2 mi ENE 1.2 mph - N/A   Partly Cloudy
3:30 AM 41.0 °F 39.0 °F 39.2 °F 93% 30.06 in 6.2 mi ENE 3.5 mph - N/A   Partly Cloudy
4:00 AM 41 °F - 39 °F 92% 30.06 in 9 mi East 2.3 mph - -   Scattered Clouds
4:00 AM 41.0 °F 37.1 °F 39.2 °F 93% 30.06 in 6.2 mi East 5.8 mph - N/A   Partly Cloudy
4:30 AM 42.8 °F 41.1 °F 41.0 °F 93% 30.04 in 6.2 mi East 3.5 mph - N/A   Partly Cloudy
5:00 AM 42 °F - 40 °F 92% 30.06 in - East 3.5 mph - -  
5:00 AM 42.8 °F 39.3 °F 41.0 °F 93% 30.04 in 6.2 mi East 5.8 mph - N/A   Partly Cloudy
5:30 AM 42.8 °F 39.3 °F 41.0 °F 93% 30.04 in 6.2 mi East 5.8 mph - N/A   Partly Cloudy
6:00 AM 42 °F - 41 °F 94% 30.06 in - ENE 2.3 mph - -  
6:00 AM 42.8 °F 39.3 °F 41.0 °F 93% 30.04 in 6.2 mi East 5.8 mph - N/A   Partly Cloudy
6:30 AM 42.8 °F 41.1 °F 41.0 °F 93% 30.06 in 6.2 mi ENE 3.5 mph - N/A   Partly Cloudy
7:00 AM 41 °F - 40 °F 94% 30.06 in 12 mi ENE 2.3 mph - -   Scattered Clouds
7:00 AM 41.0 °F 38.0 °F 39.2 °F 93% 30.04 in 6.2 mi ENE 4.6 mph - N/A   Partly Cloudy
7:30 AM 39.2 °F 35.9 °F 37.4 °F 93% 30.04 in 6.2 mi East 4.6 mph - N/A   Partly Cloudy
8:00 AM 42 °F - 40 °F 91% 30.07 in - East 2.3 mph - -  
8:00 AM 41.0 °F 39.0 °F 41.0 °F 100% 30.06 in 6.2 mi East 3.5 mph - N/A   Partly Cloudy
8:30 AM 42.8 °F - 41.0 °F 93% 30.06 in 6.2 mi East 1.2 mph - N/A   Scattered Clouds
9:00 AM 47 °F - 45 °F 89% 30.08 in - Calm Calm - -  
9:00 AM 46.4 °F - 44.6 °F 93% 30.06 in 6.2 mi ENE 2.3 mph - N/A   Scattered Clouds
9:30 AM 51.8 °F - 48.2 °F 88% 30.06 in 6.2 mi Variable 2.3 mph - N/A   Partly Cloudy
10:00 AM 56 °F - 49 °F 69% 30.08 in 17 mi East 1.2 mph - -   Mostly Cloudy
10:00 AM 55.4 °F - 48.2 °F 77% 30.06 in 6.2 mi Variable 1.2 mph - N/A   Scattered Clouds
10:30 AM 57.2 °F - 48.2 °F 72% 30.06 in 6.2 mi ENE 4.6 mph - N/A   Scattered Clouds
11:00 AM 60 °F - 47 °F 52% 30.08 in - ENE 4.6 mph - -  
11:00 AM 57.2 °F - 48.2 °F 72% 30.06 in 6.2 mi ENE 5.8 mph - N/A   Scattered Clouds
11:30 AM 59.0 °F - 48.2 °F 67% 30.06 in 6.2 mi Variable 2.3 mph - N/A   Scattered Clouds
12:00 PM 61 °F - 48 °F 52% 30.07 in - ENE 6.9 mph - -  
12:00 PM 59.0 °F - 48.2 °F 67% 30.06 in 6.2 mi NE 3.5 mph - N/A   Mostly Cloudy
12:30 PM 60.8 °F - 48.2 °F 63% 30.04 in 6.2 mi ENE 4.6 mph - N/A   Mostly Cloudy
1:00 PM 63 °F - 47 °F 45% 30.05 in 17 mi ENE 5.8 mph - -   Mostly Cloudy
1:00 PM 62.6 °F - 48.2 °F 59% 30.04 in 6.2 mi East 4.6 mph - N/A   Scattered Clouds
1:30 PM 62.6 °F - 48.2 °F 59% 30.04 in 6.2 mi ESE 3.5 mph - N/A   Scattered Clouds
2:00 PM 63 °F - 46 °F 44% 30.03 in - East 6.9 mph - -  
2:00 PM 62.6 °F - 48.2 °F 59% 30.04 in 6.2 mi East 4.6 mph - N/A   Scattered Clouds
2:30 PM 62.6 °F - 51.8 °F 68% 30.01 in 6.2 mi SW 5.8 mph - N/A   Partly Cloudy
3:00 PM 63 °F - 51 °F 54% 30.03 in - SW 10.4 mph - -  
3:00 PM 60.8 °F - 51.8 °F 72% 30.01 in 6.2 mi WSW 8.1 mph - N/A   Partly Cloudy
3:30 PM 60.8 °F - 51.8 °F 72% 30.01 in 6.2 mi WSW 10.4 mph - N/A   Partly Cloudy
4:00 PM 61 °F - 52 °F 64% 30.02 in 19 mi WSW 15.0 mph - -   Partly Cloudy
4:00 PM 60.8 °F - 51.8 °F 72% 30.01 in 6.2 mi WSW 11.5 mph - N/A   Partly Cloudy
4:30 PM 59.0 °F - 51.8 °F 77% 30.01 in 6.2 mi West 10.4 mph - N/A   Partly Cloudy
5:00 PM 60 °F - 52 °F 67% 30.02 in - West 8.1 mph - -  
5:00 PM 59.0 °F - 51.8 °F 77% 30.01 in 6.2 mi West 5.8 mph - N/A   Partly Cloudy
5:30 PM 59.0 °F - 51.8 °F 77% 30.01 in 6.2 mi WNW 8.1 mph - N/A   Partly Cloudy
6:00 PM 58 °F - 52 °F 73% 30.04 in - WNW 4.6 mph - -  
6:00 PM 57.2 °F - 51.8 °F 82% 30.04 in 6.2 mi NW 3.5 mph - N/A   Partly Cloudy
6:30 PM 57.2 °F - 51.8 °F 82% 30.04 in 6.2 mi Variable 2.3 mph - N/A   Partly Cloudy
7:00 PM 56 °F - 51 °F 78% 30.05 in 17 mi ENE 4.6 mph - -   Partly Cloudy
7:00 PM 57.2 °F - 51.8 °F 82% 30.04 in 6.2 mi NE 4.6 mph - N/A   Scattered Clouds
7:30 PM 57.2 °F - 50.0 °F 77% 30.04 in 6.2 mi SE 4.6 mph - N/A   Scattered Clouds
8:00 PM 55 °F - 48 °F 70% 30.06 in - ESE 4.6 mph - -  
8:00 PM 55.4 °F - 46.4 °F 72% 30.04 in 6.2 mi Variable 2.3 mph - N/A   Scattered Clouds
8:30 PM 51.8 °F - 46.4 °F 82% 30.04 in 6.2 mi ENE 3.5 mph - N/A   Partly Cloudy
9:00 PM 51 °F - 47 °F 83% 30.07 in - NE 4.6 mph - -  
9:00 PM 51.8 °F - 46.4 °F 82% 30.06 in 6.2 mi NE 3.5 mph - N/A   Partly Cloudy
9:30 PM 50.0 °F - 46.4 °F 87% 30.06 in 6.2 mi NNE 3.5 mph - N/A   Partly Cloudy
10:00 PM 50 °F - 47 °F 87% 30.08 in 9 mi North 3.5 mph - -   Partly Cloudy
10:00 PM 50.0 °F - 46.4 °F 87% 30.06 in 6.2 mi Variable 1.2 mph - N/A   Scattered Clouds
10:30 PM 50.0 °F - 46.4 °F 87% 30.06 in 6.2 mi Calm Calm - N/A   Scattered Clouds
11:00 PM 51 °F - 49 °F 90% 30.09 in - NW 2.3 mph - -  
11:00 PM 51.8 °F - 48.2 °F 88% 30.06 in 6.2 mi Calm Calm - N/A   Mostly Cloudy
11:30 PM 51.8 °F - 48.2 °F 88% 30.06 in 6.2 mi ESE 1.2 mph - N/A   Mostly Cloudy